Location: Cadenet
(43.7345°N, 5.3750°E)
Time: 08:23:23
(UTC+00:00)

Cosmos 1238 - Pass Details

Date: 18 February 2020
Orbit: 392 x 1426 km, 83.0° (Epoch: 31 March)

Event Time Altitude Azimuth Distance (km) Brightness Sun altitude
Rises 04:59:59 0° 186° (S) 2,370 8.0 -17.6°
Reaches altitude 10° 05:02:02 10° 187° (S) 1,459 6.9 -17.2°
Maximum altitude 05:05:06 89° 125° (SE) 399 4.0 -16.7°
Drops below altitude 10° 05:08:10 10° 8° (N) 1,462 7.1 -16.1°
Sets 05:10:13 0° 8° (N) 2,376 8.2 -15.7°
